{"data":{"norad_id":65881,"epoch":"2026-09-20T22:26:22.262496Z","epoch_age_seconds":68647,"freshness":"FRESH","line1":"1 65881U 25223AD  26263.93497989  .00017271  00000+0  52080-3 0  9994","line2":"2 65881  53.1582 103.3723 0001112  91.9330 268.1800 15.34419111 54153","mean_motion":15.34419111,"eccentricity":0.0001112,"inclination_deg":53.1582,"raan_deg":103.3723,"arg_perigee_deg":91.933,"mean_anomaly_deg":268.18,"bstar":0.0005208,"rev_number":5415,"period_min":93.84658921913,"perigee_km":461.88574375879,"apogee_km":463.4071339956,"semimajor_km":6840.7834388772,"source":"CELESTRAK","updated_at":"2026-09-21T09:00:35.754375Z"}}